Flag for Ireland Weather past 2 weeks in Galway, Ireland

Now
48 °F

Fog.


Feels Like: 48 °F
Forecast: 50 / 67 °F
Wind: No wind

Location: Shannon Airport

Current Time: Sep 15, 2014 at 5:34:56 AM

Latest Report: Sep 15, 2014 at 5:00 AM


Visibility: 3 mi

Pressure: 30.09 "Hg

Humidity: 94%

Dew point: 46 °F

Location of GalwayLocation

Historic Weather in Galway — Graph

°F

Galway temperature yesterday

Maximum temperature yesterday: 66 °F (at 2:30 PM)
Minimum temperature yesterday: 48 °F (at 7:00 AM)
Average temperature yesterday: 58 °F

Past Weeks' High & Low Weather Summary

 TemperatureHumidityPressure
High75 °F (Sep 4, 3:30 PM)100% (Aug 31, 5:30 AM)30.30 "Hg (Aug 31, 5:30 AM)
Low43 °F (Sep 7, 7:00 AM)37% (Sep 9, 4:30 PM)29.98 "Hg (Aug 31, 6:00 PM)
Average59 °F72%30.14 "Hg
* Reported Aug 31 4:00 AM — Sep 15 4:30 AM, Galway, Weather by CustomWeather, © 2014

Note: Actual official high and low records may vary slightly from our data, if they occured in-between our weather recording intervals... More about our weather records

Advertising

Galway weather history for previous 24 hours

 ConditionsComfort  
Time TempWeatherWind HumidityBarometerVisibility
4:30 AM
Sep 15
48 °FPassing clouds.No wind100%30.09 "Hg4 mi
4:00 AM50 °FPassing clouds.No wind94%30.09 "Hg5 mi
3:30 AM50 °FPassing clouds.No wind94%30.09 "Hg6 mi
3:00 AM50 °FPartly cloudy.3 mph94%30.12 "Hg6 mi
2:30 AM50 °FPassing clouds.3 mph94%30.12 "Hg5 mi
2:00 AM52 °FPassing clouds.5 mph88%30.12 "Hg5 mi
1:30 AM50 °FPassing clouds.5 mph94%30.12 "Hg6 mi
1:00 AM50 °FClear.3 mph94%30.12 "Hg10 mi
12:30 AM52 °FClear.5 mph88%30.12 "Hg10 mi
12:00 AM52 °FClear.6 mph88%30.12 "Hg10 mi
11:30 PM
Sep 14
54 °FClear.7 mph72%30.12 "Hg10 mi
11:00 PM57 °FClear.7 mph67%30.15 "Hg10 mi
10:30 PM55 °FClear.6 mph72%30.15 "Hg10 mi
10:00 PM55 °FClear.7 mph72%30.15 "Hg10 mi
9:30 PM57 °FClear.7 mph63%30.12 "Hg10 mi
9:00 PM59 °FClear.7 mph59%30.15 "Hg10 mi
8:30 PM59 °FPassing clouds.8 mph59%30.12 "HgN/A
8:00 PM61 °FPassing clouds.8 mph59%30.12 "HgN/A
7:30 PM63 °FPartly sunny.8 mph56%30.12 "HgN/A
7:00 PM64 °FPartly sunny.9 mph56%30.12 "HgN/A
6:30 PM64 °FBroken clouds.9 mph52%30.12 "HgN/A
6:00 PM66 °FPartly sunny.10 mph49%30.12 "HgN/A
5:30 PM66 °FPartly sunny.12 mph52%30.12 "HgN/A
5:00 PM66 °FBroken clouds.13 mph52%30.12 "HgN/A
4:30 PM66 °FBroken clouds.14 mph49%30.12 "HgN/A
4:00 PM66 °FPartly sunny.14 mph52%30.12 "HgN/A
3:30 PM66 °FPartly sunny.13 mph52%30.12 "HgN/A
3:00 PM66 °FBroken clouds.12 mph56%30.15 "HgN/A
2:30 PM66 °FBroken clouds.12 mph60%30.15 "HgN/A
2:00 PM64 °FBroken clouds.12 mph68%30.15 "HgN/A
1:30 PM64 °FBroken clouds.13 mph68%30.18 "HgN/A
1:00 PM64 °FBroken clouds.12 mph68%30.18 "HgN/A
12:30 PM64 °FBroken clouds.13 mph68%30.18 "HgN/A
12:00 PM64 °FPartly sunny.13 mph73%30.18 "HgN/A
11:30 AM63 °FBroken clouds.10 mph77%30.18 "Hg6 mi
11:00 AM63 °FPartly sunny.12 mph77%30.18 "Hg5 mi
10:30 AM59 °FBroken clouds.7 mph88%30.21 "Hg5 mi
10:00 AM55 °FPartly sunny.No wind94%30.21 "Hg5 mi
9:30 AM54 °FBroken clouds.No wind94%30.21 "Hg5 mi
9:00 AM54 °FBroken clouds.1 mph94%30.21 "Hg5 mi
8:30 AM52 °FPartly sunny.2 mph94%30.21 "Hg5 mi
8:00 AM50 °FPassing clouds.2 mph94%30.21 "Hg5 mi
7:30 AM48 °FPassing clouds.2 mph100%30.21 "Hg5 mi
7:00 AM48 °FFog.6 mph94%30.21 "Hg4 mi
6:30 AM50 °FPassing clouds.5 mph94%30.21 "HgN/A
6:00 AM50 °FPassing clouds.8 mph94%30.21 "HgN/A
5:30 AM50 °FPassing clouds.6 mph94%30.21 "HgN/A
5:00 AM50 °FPassing clouds.5 mph94%30.21 "HgN/A
Weather by CustomWeather, © 2014

See weather overviewHow to use our weather pages